Tracking 23731 objects as of 26-Sep-2021
HD Live streaming from Space Station
objects crossing your sky now

STARLINK-1450

Track STARLINK-1450 now!
10-day predictions
STARLINK-1450 is classified as:


NORAD ID: 45667
Int'l Code: 2020-035L
Perigee: 553.0 km
Apogee: 555.7 km
Inclination: 53.1 °
Period: 95.6 minutes
Semi major axis: 6925 km
RCS: Unknown
Launch date: June 4, 2020
Source: United States (US)
Launch site: AIR FORCE EASTERN TEST RANGE (AFETR)
aabbcc
Your satellite tracking list
Your tracking list is empty




NASA's NSSDC Master Catalog

Two Line Element Set (TLE):
1 45667U 20035L   21269.39738540  .00000791  00000-0  71971-4 0  9993
2 45667  53.0540 162.8466 0001920  82.0168 278.1039 15.06402065 73758
Source of the keplerian elements: AFSPC